Date,TemperatureHighF,TemperatureAvgF,TemperatureLowF,DewpointHighF,DewpointAvgF,DewpointLowF,HumidityHigh,HumidityAvg,HumidityLow,PressureMaxIn,PressureMinIn,WindSpeedMaxMPH,WindSpeedAvgMPH,GustSpeedMaxMPH,PrecipitationSumIn
2013-1-1,52,48,44,50,42,28,96,80,49,30.10,29.93,3,0,5,0.20
2013-1-2,51,46,41,50,43,38,97,91,78,30.18,29.90,5,0,7,0.25
2013-1-3,45,41,33,38,36,29,92,83,64,30.25,30.12,1,0,4,0.00
2013-1-4,51,39,28,31,26,23,93,65,34,30.30,30.18,3,0,9,0.00
2013-1-5,51,40,29,30,26,22,79,58,35,30.38,30.27,2,0,5,0.00
2013-1-6,49,43,36,41,36,29,91,75,58,30.27,30.05,2,0,5,0.02
2013-1-7,52,40,31,35,32,28,93,74,46,30.43,30.16,5,0,9,0.00
2013-1-8,57,43,31,43,36,29,95,78,51,30.45,30.35,1,0,5,0.00
2013-1-9,68,51,37,52,44,35,97,78,53,30.43,30.34,3,0,6,0.00
2013-1-10,63,54,46,50,46,38,96,76,56,30.51,30.40,2,0,5,0.00
2013-1-11,53,49,43,52,44,33,97,85,53,30.43,30.14,1,0,5,0.30
2013-1-12,71,58,50,63,55,49,99,92,76,30.16,30.09,2,0,6,0.00
2013-1-13,75,62,53,62,57,52,99,85,60,30.13,30.05,3,0,7,0.01
2013-1-14,73,64,56,64,60,54,96,86,71,30.15,30.07,3,0,7,0.00
2013-1-15,64,49,46,60,48,45,97,94,84,30.20,30.04,5,0,9,0.01
2013-1-16,51,48,45,51,47,45,99,98,97,30.05,29.97,2,0,6,0.17
2013-1-17,52,48,34,52,47,34,99,98,96,30.13,29.85,9,1,15,0.74
2013-1-18,47,37,30,37,30,23,98,78,41,30.54,30.12,5,0,7,0.04
2013-1-19,54,36,27,37,28,24,92,74,33,30.50,30.16,2,0,5,0.00
2013-1-20,64,49,40,38,35,32,77,60,32,30.16,29.97,5,0,9,0.00
2013-1-21,60,45,31,37,30,20,95,60,30,30.07,29.87,3,0,12,0.00
2013-1-22,43,35,27,23,10,-1,63,37,18,30.28,29.95,5,1,12,0.00
2013-1-23,41,30,20,18,11,2,78,47,27,30.37,30.06,3,0,8,0.00
2013-1-24,38,33,25,28,16,4,78,52,26,30.51,29.95,8,1,14,0.00
2013-1-25,28,25,21,25,15,5,90,69,41,30.51,30.11,1,0,5,0.06
2013-1-26,41,31,26,36,28,24,95,89,67,30.40,30.09,2,0,5,0.03
2013-1-27,41,33,28,31,28,26,96,81,59,30.59,30.39,3,0,8,0.05
2013-1-28,53,43,33,49,37,28,88,79,67,30.51,30.23,2,0,7,0.06
2013-1-29,74,59,49,58,52,45,93,78,53,30.23,30.06,5,1,12,0.00
2013-1-30,72,67,58,65,62,55,96,85,72,30.06,29.40,9,3,20,0.12
2013-1-31,65,48,35,61,32,18,89,57,28,30.01,29.47,8,3,18,0.14
2013-2-1,42,37,28,29,15,2,67,42,23,30.38,29.89,6,2,14,0.00
2013-2-2,45,34,21,37,15,7,83,47,25,30.40,30.04,6,1,13,0.01
2013-2-3,50,43,35,37,31,25,88,65,40,30.03,29.85,3,1,10,0.00
2013-2-4,49,38,27,28,24,21,89,60,34,30.13,29.97,3,0,6,0.00
2013-2-5,63,47,36,38,33,27,82,62,34,30.01,29.86,5,1,10,0.00
2013-2-6,64,47,33,39,31,22,95,59,21,30.27,29.96,5,1,12,0.00
2013-2-7,50,44,38,44,39,33,96,82,64,30.29,29.94,3,0,7,0.29
2013-2-8,55,46,40,46,41,29,97,83,58,30.05,29.77,8,2,13,0.41
2013-2-9,54,41,31,30,25,19,80,57,25,30.35,30.03,5,1,8,0.00
2013-2-10,54,40,27,40,26,20,90,60,27,30.49,30.20,3,0,8,0.04
2013-2-11,63,57,46,61,54,40,97,91,80,30.20,29.91,5,1,12,0.06
2013-2-12,62,54,46,53,39,26,92,61,27,30.07,29.89,5,0,8,0.00
2013-2-13,50,47,44,47,44,38,96,91,65,29.95,29.59,3,0,8,0.09
2013-2-14,52,42,33,39,33,30,93,72,47,30.06,29.82,2,0,7,0.00
2013-2-15,62,44,31,42,33,28,96,69,30,30.08,29.92,3,0,7,0.01
2013-2-16,46,38,31,36,33,29,95,84,65,29.95,29.81,3,0,8,0.20
2013-2-17,39,31,25,29,16,8,94,57,28,30.28,29.91,7,1,14,0.02
2013-2-18,52,35,20,26,18,13,90,56,25,30.41,30.26,3,0,8,0.00
2013-2-19,53,44,34,51,39,26,93,83,64,30.26,29.84,7,1,12,0.08
2013-2-20,54,42,33,40,23,15,90,51,22,30.12,29.95,5,1,12,0.00
2013-2-21,56,41,27,26,20,16,85,46,21,30.25,30.10,5,0,9,0.00
2013-2-22,44,37,33,36,33,22,96,86,43,30.34,30.12,2,0,5,0.46
2013-2-23,44,40,37,43,40,36,98,97,96,30.12,29.81,2,0,5,0.64
2013-2-24,63,50,40,50,40,29,99,74,31,30.02,29.78,5,1,8,0.02
2013-2-25,44,39,34,33,26,22,78,61,46,30.20,30.02,3,0,7,0.00
2013-2-26,60,46,37,60,43,26,99,89,64,30.12,29.54,3,0,13,1.06
2013-2-27,60,50,43,48,41,37,96,75,45,29.78,29.62,5,1,10,0.00
2013-2-28,49,44,37,39,32,26,93,67,41,29.84,29.68,5,1,53,0.00
2013-3-1,51,41,31,32,29,26,84,63,40,29.90,29.82,5,1,8,0.00
2013-3-2,50,40,29,32,26,20,91,61,39,29.92,29.80,5,1,8,0.00
2013-3-3,47,36,28,24,21,18,75,54,35,29.97,29.84,5,1,8,0.00
2013-3-4,51,37,25,26,19,14,73,51,23,30.10,29.96,5,1,10,0.00
2013-3-5,50,43,34,45,36,25,96,77,48,30.07,29.56,2,0,7,0.29
2013-3-6,49,44,38,48,34,26,97,70,48,30.00,29.49,8,2,20,0.00
2013-3-7,54,43,34,33,30,27,81,61,42,30.22,30.00,6,1,12,0.00
2013-3-8,56,44,31,31,26,23,81,52,28,30.27,30.13,7,2,13,0.00
2013-3-9,63,48,35,36,29,26,80,52,25,30.32,30.22,5,1,7,0.00
2013-3-10,68,49,33,36,29,20,94,56,18,30.31,30.20,3,0,8,0.00
2013-3-11,70,55,40,54,44,28,91,68,47,30.24,29.93,5,1,12,0.00
2013-3-12,73,63,52,63,54,34,97,75,45,29.94,29.73,3,1,10,0.33
2013-3-13,60,49,37,33,27,20,82,45,25,30.11,29.92,6,2,13,0.00
2013-3-14,54,42,30,28,21,17,68,44,26,30.22,30.09,6,1,13,0.00
2013-3-15,63,47,29,35,28,20,77,50,28,30.17,29.90,5,1,10,0.00
2013-3-16,79,63,49,49,43,35,66,50,31,29.90,29.66,6,2,15,0.00
2013-3-17,64,54,44,53,45,38,93,72,51,30.15,29.83,3,1,8,0.00
2013-3-18,45,42,39,43,40,38,96,94,83,30.17,29.87,1,0,6,0.23
2013-3-19,67,52,42,50,37,16,98,66,21,29.99,29.80,6,1,12,0.23
2013-3-20,57,49,40,26,16,10,56,29,20,30.10,29.77,5,1,8,0.00
2013-3-21,50,41,32,31,21,11,73,46,23,29.96,29.70,5,2,13,0.00
2013-3-22,53,38,25,27,16,12,66,43,23,30.07,29.96,5,1,9,0.00
2013-3-23,55,47,40,32,26,20,70,46,31,30.03,29.90,1,0,5,0.00
2013-3-24,43,39,36,39,36,30,95,87,66,29.93,29.54,5,0,9,0.42
2013-3-25,50,42,37,39,31,22,96,70,38,29.80,29.54,7,2,20,0.00
2013-3-26,52,43,35,31,28,25,71,55,42,30.09,29.81,5,1,9,0.00
2013-3-27,55,43,34,29,25,21,77,53,29,30.22,30.09,6,1,12,0.00
2013-3-28,57,44,31,29,25,23,79,51,27,30.28,30.13,6,1,13,0.00
2013-3-29,62,46,30,34,28,24,92,54,26,30.33,30.17,5,1,10,0.00
2013-3-30,66,54,42,44,39,31,83,59,34,30.22,30.07,3,0,8,0.00
2013-3-31,69,58,49,57,50,42,96,77,60,30.09,29.80,5,1,10,0.25
2013-4-1,74,62,56,55,48,37,96,67,28,29.92,29.80,5,1,12,0.11
2013-4-2,62,52,41,40,31,26,74,47,27,30.13,29.93,6,1,12,0.00
2013-4-3,62,52,44,37,25,18,72,36,21,30.27,30.11,5,1,8,0.00
2013-4-4,48,43,40,41,34,25,96,73,45,30.32,29.89,3,0,9,0.86
2013-4-5,64,49,40,48,43,39,98,84,53,30.00,29.85,3,0,8,0.01
2013-4-6,67,54,42,42,34,26,92,51,26,30.26,30.00,3,1,8,0.00
2013-4-7,74,57,38,48,40,33,90,56,31,30.26,30.10,5,1,9,0.00
2013-4-8,80,67,51,58,52,47,96,63,37,30.17,30.05,5,1,10,0.00
2013-4-9,86,72,57,61,57,54,96,64,35,30.18,30.06,3,1,8,0.00
2013-4-10,88,74,61,62,59,57,90,63,37,30.10,29.94,5,1,9,0.00
2013-4-11,83,72,62,67,61,58,93,70,43,30.00,29.80,5,1,12,0.00
2013-4-12,82,73,67,70,64,51,96,75,48,29.82,29.61,5,1,9,0.47
2013-4-13,76,66,54,52,43,38,73,47,26,30.00,29.76,5,1,8,0.00
2013-4-14,81,65,48,53,46,38,95,56,23,30.09,30.00,3,0,8,0.00
2013-4-15,72,67,61,59,57,50,87,71,56,30.20,30.00,3,0,8,0.01
2013-4-16,78,67,59,62,59,56,96,76,50,30.29,30.18,2,0,6,0.00
2013-4-17,82,71,58,66,62,56,97,75,52,30.23,30.10,2,0,6,0.00
2013-4-18,80,71,61,63,60,57,94,71,52,30.19,30.04,5,0,10,0.00
2013-4-19,84,72,66,69,66,62,96,81,57,30.05,29.73,6,1,22,0.45
2013-4-20,66,57,49,65,44,34,96,65,31,30.26,29.83,2,0,9,0.09
2013-4-21,65,53,43,45,42,40,91,67,41,30.46,30.26,1,0,13,0.00
2013-4-22,62,51,39,46,40,33,85,68,46,30.46,30.24,2,0,7,0.00
2013-4-23,69,56,48,53,48,45,92,77,51,30.26,30.11,3,0,5,0.01
2013-4-24,79,64,49,59,53,47,96,70,44,30.15,29.97,3,0,12,0.00
2013-4-25,73,63,54,57,49,41,91,62,36,30.26,30.01,3,0,6,0.00
2013-4-26,74,62,53,53,45,33,94,60,24,30.41,30.26,3,0,6,0.00
2013-4-27,75,64,53,52,46,39,80,56,28,30.37,30.25,3,0,7,0.00
2013-4-28,64,59,56,56,51,43,96,74,59,30.26,30.09,2,0,6,0.06
2013-4-29,73,64,56,65,61,55,98,88,68,30.09,29.95,2,0,5,0.99
2013-4-30,67,62,58,62,59,55,97,90,77,30.16,29.99,1,0,2,0.01
2013-5-1,62,60,58,58,57,56,95,91,85,30.30,30.14,0,0,6,0.00
2013-5-2,67,60,56,59,56,53,96,88,75,30.30,30.24,0,0,4,0.00
2013-5-3,72,60,52,57,51,44,93,74,53,30.24,30.14,1,0,8,0.00
2013-5-4,69,57,50,54,50,44,88,76,56,30.19,30.05,1,0,9,0.00
2013-5-5,61,56,51,57,52,47,90,86,81,30.08,29.96,1,0,10,0.00
2013-5-6,72,62,57,66,59,54,98,92,75,29.98,29.81,1,0,8,1.07
2013-5-7,74,61,52,58,52,48,97,77,40,29.94,29.84,3,0,8,0.00
2013-5-8,75,63,54,60,56,50,96,79,52,30.00,29.92,3,0,6,0.33
2013-5-9,82,68,55,64,58,53,97,74,43,30.06,29.97,3,0,6,0.22
2013-5-10,87,74,58,64,60,54,95,64,38,30.06,29.94,3,0,9,0.00
2013-5-11,85,75,68,68,63,59,89,69,47,29.97,29.78,3,0,12,0.02
2013-5-12,76,68,58,63,52,37,92,60,35,30.01,29.79,3,0,7,0.03
2013-5-13,68,60,50,45,39,33,74,48,29,30.17,30.01,5,1,8,0.00
2013-5-14,73,59,43,46,40,34,93,54,27,30.25,30.08,2,0,7,0.00
2013-5-15,90,72,55,63,55,42,81,59,35,30.08,29.90,2,0,7,0.00
2013-5-16,88,76,67,66,61,57,80,63,36,29.98,29.89,2,0,8,0.00
2013-5-17,90,78,66,67,62,56,91,63,33,30.07,29.97,2,0,6,0.00
2013-5-18,83,73,65,70,65,61,91,75,52,30.14,30.06,1,0,5,0.05
2013-5-19,80,72,68,70,67,66,96,87,64,30.14,30.05,2,0,8,0.30
2013-5-20,78,72,68,71,69,67,98,90,75,30.11,30.02,2,0,7,0.32
2013-5-21,85,74,69,75,70,68,96,86,62,30.05,29.95,2,0,8,0.18
2013-5-22,86,76,68,70,68,64,95,78,53,30.03,29.91,3,0,10,0.00
2013-5-23,84,73,69,73,69,68,96,88,61,29.96,29.82,1,0,5,0.92
2013-5-24,74,66,55,68,55,41,97,72,38,30.17,29.80,6,1,9,0.00
2013-5-25,75,61,46,53,44,37,87,59,28,30.27,30.13,3,0,6,0.00
2013-5-26,75,63,52,53,48,41,82,60,35,30.26,30.17,2,0,6,0.00
2013-5-27,83,69,54,58,52,44,88,58,28,30.26,30.16,2,0,8,0.00
2013-5-28,86,74,62,68,63,58,92,69,48,30.25,30.15,3,0,9,0.00
2013-5-29,87,76,64,67,64,60,94,68,46,30.25,30.16,3,0,9,0.00
2013-5-30,89,77,64,68,64,59,95,67,41,30.27,30.16,2,0,8,0.00
2013-5-31,90,79,67,71,67,63,95,69,44,30.22,30.09,2,0,7,0.00
2013-6-1,90,79,68,71,67,63,94,69,42,30.14,30.02,3,0,9,0.00
2013-6-2,89,78,69,70,67,63,92,70,43,30.06,29.89,3,0,10,0.00
2013-6-3,83,74,67,76,71,65,97,89,69,29.95,29.83,3,0,9,1.12
2013-6-4,82,73,66,70,65,62,98,79,55,30.09,29.92,2,0,5,0.00
2013-6-5,83,74,65,64,61,56,90,66,40,30.13,30.00,3,0,7,0.00
2013-6-6,78,72,68,73,67,59,96,86,62,30.03,29.83,2,0,9,0.60
2013-6-7,78,72,70,76,71,69,99,97,94,29.85,29.44,6,0,8,2.32
2013-6-8,85,75,69,74,70,68,99,86,63,30.08,29.82,0,0,5,0.05
2013-6-9,88,78,69,74,70,67,97,80,55,30.15,30.05,1,0,6,0.10
2013-6-10,83,75,72,77,73,70,97,92,78,30.10,29.91,1,0,9,1.48
2013-6-11,86,77,70,72,69,66,95,78,52,29.95,29.89,2,0,7,0.00
2013-6-12,91,80,68,75,70,65,92,74,54,29.97,29.86,0,0,5,0.00
2013-6-13,97,81,69,78,72,64,94,76,40,29.86,29.60,7,0,15,0.10
2013-6-14,80,72,63,68,61,57,94,69,45,30.01,29.72,2,0,6,0.00
2013-6-15,86,74,60,66,61,57,95,68,42,30.12,30.01,0,0,0,0.00
2013-6-16,88,77,64,70,64,56,84,65,50,30.13,30.00,3,0,8,0.00
2013-6-17,88,78,70,73,68,64,86,73,51,30.03,29.92,2,0,8,0.00
2013-6-18,86,76,71,73,70,68,96,84,64,29.97,29.75,1,0,9,1.19
2013-6-19,82,74,67,71,68,66,98,83,61,30.10,29.86,0,0,0,0.00
2013-6-20,84,74,65,67,64,56,95,73,50,30.23,30.10,2,0,5,0.00
2013-6-21,85,73,60,67,60,51,92,65,37,30.25,30.17,2,0,7,0.00
2013-6-22,80,74,70,73,70,67,95,88,74,30.19,30.10,0,0,3,0.11
2013-6-23,86,76,70,76,71,68,97,85,63,30.21,30.11,1,0,6,0.06
2013-6-24,86,78,72,76,73,70,97,85,67,30.20,30.09,2,0,7,0.01
2013-6-25,90,77,71,77,71,68,96,84,59,30.14,30.01,3,0,9,0.09
2013-6-26,90,77,70,77,72,66,97,84,60,30.03,29.91,7,0,10,0.22
2013-6-27,91,77,68,78,72,67,98,86,56,29.91,29.72,2,0,12,0.05
2013-6-28,92,80,72,76,73,70,96,80,52,29.77,29.58,6,0,9,0.73
2013-6-29,86,77,70,76,72,69,98,86,64,29.73,29.60,2,0,7,0.04
2013-6-30,87,78,72,75,73,69,96,86,64,29.86,29.71,3,0,9,0.18
2013-7-1,84,76,71,76,73,70,98,89,71,29.99,29.83,3,0,9,1.16
2013-7-2,76,74,72,75,72,70,97,96,90,30.18,29.99,2,0,10,0.66
2013-7-3,87,78,74,77,74,71,98,88,68,30.24,30.16,5,0,8,0.00
2013-7-4,91,81,74,76,73,69,96,78,49,30.27,30.17,3,0,13,0.02
2013-7-5,91,81,73,76,73,72,96,79,55,30.28,30.16,2,0,9,0.00
2013-7-6,90,80,74,77,73,69,96,81,56,30.25,30.12,3,0,8,0.00
2013-7-7,90,80,71,76,72,68,97,77,56,30.18,30.06,1,0,8,0.00
2013-7-8,89,79,73,78,73,69,93,84,67,30.17,30.09,2,0,9,0.03
2013-7-9,88,77,73,78,74,71,97,90,65,30.16,30.07,1,0,7,0.37
2013-7-10,87,78,74,79,75,73,97,90,68,30.11,29.95,2,0,7,0.67
2013-7-11,85,76,73,76,73,71,97,91,72,29.98,29.88,1,0,6,0.28
2013-7-12,76,73,72,75,72,71,98,97,95,30.01,29.86,0,0,1,0.17
2013-7-13,79,74,71,78,73,70,99,97,94,30.16,30.00,0,0,2,0.45
2013-7-14,89,79,71,77,74,70,99,85,60,30.28,30.16,3,0,9,0.03
2013-7-15,91,80,71,77,73,70,98,79,51,30.31,30.23,2,0,5,0.01
2013-7-16,94,81,71,77,73,69,97,78,49,30.27,30.17,5,0,13,0.14
2013-7-17,94,83,74,80,75,72,98,79,52,30.21,30.09,1,0,4,0.01
2013-7-18,93,83,77,79,76,74,96,80,56,30.14,30.03,2,0,5,0.01
2013-7-19,92,83,75,78,75,71,95,77,54,30.10,29.98,3,0,8,0.00
2013-7-20,90,81,75,77,74,72,92,79,58,30.03,29.91,3,0,9,0.00
2013-7-21,90,79,73,77,73,70,96,83,62,29.99,29.89,2,0,9,1.24
2013-7-22,89,78,72,78,74,72,98,87,66,29.95,29.82,1,0,5,0.00
2013-7-23,89,81,74,78,74,72,95,81,64,29.85,29.72,2,0,6,0.04
2013-7-24,92,81,72,76,72,68,96,78,47,29.83,29.72,2,0,5,1.06
2013-7-25,81,74,70,72,70,67,98,89,69,30.02,29.80,0,0,1,0.01
2013-7-26,86,76,65,69,66,62,96,75,49,30.10,30.00,2,0,5,0.00
2013-7-27,88,76,69,73,70,67,96,82,53,30.05,29.93,2,0,8,0.64
2013-7-28,88,78,71,76,72,69,98,83,54,30.00,29.92,0,0,0,0.01
2013-7-29,87,78,72,73,71,68,96,79,54,30.14,29.98,2,0,5,0.09
2013-7-30,88,77,65,71,68,63,95,74,48,30.21,30.12,1,0,3,0.00
2013-7-31,84,78,73,75,72,69,95,83,69,30.14,30.00,0,0,6,0.24
2013-8-1,84,76,72,77,72,70,97,90,72,30.02,29.86,0,0,0,0.19
2013-8-2,89,79,71,75,72,69,97,81,56,30.01,29.89,0,0,0,0.01
2013-8-3,90,80,73,78,74,71,95,84,57,30.01,29.89,5,0,8,0.56
2013-8-4,84,76,70,74,70,63,98,82,51,30.02,29.88,3,0,6,0.11
2013-8-5,85,75,66,69,65,61,95,74,46,30.08,30.00,2,0,6,0.00
2013-8-6,85,76,68,72,68,64,96,76,57,30.06,29.99,1,0,8,0.10
2013-8-7,87,78,71,72,69,66,92,76,55,30.10,30.02,2,0,8,0.00
2013-8-8,89,80,72,75,72,69,95,77,56,30.06,29.99,0,0,0,0.00
2013-8-9,92,82,75,79,75,73,96,79,57,30.06,29.98,1,0,6,0.00
2013-8-10,94,82,74,80,75,73,96,82,58,30.09,29.99,3,0,7,0.41
2013-8-11,92,81,72,79,75,71,98,83,58,30.10,30.00,1,0,5,0.01
2013-8-12,92,83,76,78,74,70,96,78,52,30.03,29.92,2,0,6,0.00
2013-8-13,91,80,74,80,75,72,97,85,63,29.95,29.76,0,0,10,0.54
2013-8-14,75,72,65,74,68,60,97,86,75,30.07,29.81,0,0,0,0.00
2013-8-15,78,67,61,63,59,57,88,77,53,30.15,30.07,0,0,0,0.00
2013-8-16,71,66,61,64,61,59,93,85,67,30.17,30.09,0,0,0,0.00
2013-8-17,73,69,65,72,67,62,98,94,86,30.16,30.10,0,0,0,0.29
2013-8-18,83,74,70,73,71,67,99,88,69,30.19,30.11,0,0,0,0.09
2013-8-19,73,70,68,72,69,66,98,95,89,30.18,30.09,0,0,0,0.23
2013-8-20,83,76,71,75,72,70,98,89,72,30.18,30.10,0,0,0,0.00
2013-8-21,88,77,71,77,73,70,97,88,64,30.22,30.10,0,0,0,0.02
2013-8-22,88,78,71,77,73,70,98,84,63,30.14,29.99,1,0,7,0.12
2013-8-23,88,78,70,75,72,69,96,83,61,30.04,29.92,1,0,5,0.00
2013-8-24,83,74,66,69,63,59,92,72,46,30.28,30.04,1,0,5,0.00
2013-8-25,81,71,63,64,61,55,96,74,42,30.38,30.28,0,0,1,0.00
2013-8-26,83,69,57,65,59,55,97,73,42,30.32,30.12,0,0,2,0.00
2013-8-27,88,74,62,74,66,57,91,78,58,30.12,29.96,0,0,1,0.00
2013-8-28,84,77,70,77,73,68,97,87,72,29.98,29.88,0,0,0,0.00
2013-8-29,88,80,74,76,73,71,93,80,60,29.99,29.83,0,0,0,0.00
2013-8-30,87,76,66,71,68,64,96,77,48,30.05,29.94,0,0,1,0.00
2013-8-31,89,78,67,74,70,65,96,78,56,29.97,29.86,2,0,7,0.00
2013-9-1,92,80,72,79,73,70,96,82,57,29.90,29.76,3,0,9,1.22
2013-9-2,89,78,71,78,73,70,98,87,61,29.89,29.79,1,0,5,0.00
2013-9-3,86,78,73,79,74,70,96,87,68,29.92,29.79,0,0,3,0.05
2013-9-4,86,76,68,74,71,66,96,84,64,30.07,29.92,3,0,6,0.00
2013-9-5,87,76,68,74,68,63,97,78,48,30.08,30.02,2,0,5,0.00
2013-9-6,84,73,66,67,63,58,91,72,51,30.16,30.06,2,0,5,0.00
2013-9-7,83,72,61,67,63,58,96,76,48,30.12,29.98,1,0,5,0.00
2013-9-8,87,75,65,68,64,59,95,72,41,29.98,29.90,2,0,5,0.00
2013-9-9,88,76,66,72,68,63,97,77,51,30.15,29.98,2,0,8,0.00
2013-9-10,90,78,68,74,68,65,97,74,45,30.23,30.14,2,0,6,0.00
2013-9-11,89,78,68,74,68,64,96,75,46,30.20,30.07,2,0,7,0.00
2013-9-12,90,77,70,76,70,67,95,80,51,30.08,29.80,3,0,6,0.22
2013-9-13,85,75,68,71,66,57,97,76,49,29.87,29.75,3,0,6,0.00
2013-9-14,76,68,60,58,54,49,85,61,43,30.12,29.87,5,1,7,0.00
2013-9-15,81,68,57,64,59,53,95,74,48,30.23,30.12,1,0,5,0.00
2013-9-16,84,74,67,74,66,61,97,78,50,30.17,30.03,3,0,6,0.46
2013-9-17,77,68,60,62,56,53,84,67,45,30.30,30.17,3,0,6,0.00
2013-9-18,74,62,53,57,53,50,92,74,47,30.29,30.17,2,0,5,0.00
2013-9-19,77,67,55,64,59,52,95,77,54,30.18,30.08,2,0,7,0.00
2013-9-20,69,67,65,67,64,58,96,89,74,30.09,29.96,0,0,2,0.15
2013-9-21,78,71,66,72,68,65,98,91,75,29.97,29.73,2,0,6,0.35
2013-9-22,76,68,61,70,62,58,99,83,58,29.89,29.68,3,0,8,1.50
2013-9-23,74,64,56,59,55,51,92,75,52,30.07,29.89,0,0,0,0.00
2013-9-24,75,64,55,62,57,53,96,80,58,30.09,29.95,0,0,2,0.00
2013-9-25,75,65,55,63,59,53,97,83,58,29.96,29.86,0,0,0,0.00
2013-9-26,76,67,60,62,58,50,95,76,43,30.02,29.86,1,0,5,0.00
2013-9-27,75,64,57,62,57,55,97,80,55,30.17,30.02,0,0,2,0.00
2013-9-28,72,63,54,58,55,53,96,78,54,30.23,30.15,1,0,6,0.00
2013-9-29,73,63,54,59,55,51,97,78,52,30.16,30.03,3,0,7,0.00
2013-9-30,75,63,54,63,56,52,97,80,49,30.08,29.99,0,0,0,0.00
2013-10-1,80,66,54,64,58,52,97,79,48,30.12,30.02,0,0,2,0.00
2013-10-2,83,70,60,66,61,57,97,77,48,30.12,30.04,0,0,1,0.00
2013-10-3,84,71,60,68,63,58,97,78,50,30.13,30.05,0,0,1,0.00
2013-10-4,84,72,62,69,64,60,97,77,50,30.13,30.05,1,0,7,0.00
2013-10-5,87,74,63,71,65,61,98,76,46,30.10,30.03,1,0,6,0.00
2013-10-6,84,73,65,72,68,62,96,85,62,30.06,29.93,3,0,8,0.00
2013-10-7,75,72,63,73,70,62,97,94,90,29.97,29.85,1,0,8,0.47
2013-10-8,63,59,57,62,52,47,96,78,63,30.17,29.95,3,0,8,0.01
2013-10-9,62,59,55,56,54,51,96,83,75,30.16,30.05,6,2,10,0.00
2013-10-10,61,57,54,60,56,52,97,95,92,30.05,29.92,3,0,9,0.02
2013-10-11,68,63,59,63,60,58,97,92,81,29.95,29.89,0,0,1,0.00
2013-10-12,68,64,62,65,62,60,95,92,88,30.06,29.93,0,0,0,0.00
2013-10-13,68,65,62,64,63,62,98,94,89,30.17,30.06,0,0,0,0.06
2013-10-14,66,63,59,63,61,57,99,94,87,30.22,30.15,0,0,0,0.00
2013-10-15,72,63,55,62,59,54,98,87,69,30.18,30.04,0,0,0,0.01
2013-10-16,70,65,62,64,62,60,96,89,81,30.05,29.96,0,0,0,0.00
2013-10-17,77,68,60,67,63,58,97,86,66,29.97,29.85,1,0,7,0.00
2013-10-18,68,64,59,65,56,48,95,77,58,30.03,29.87,2,0,6,0.00
2013-10-19,69,64,61,65,61,57,96,90,84,29.97,29.82,0,0,0,0.01
2013-10-20,65,57,48,60,48,41,95,74,46,30.11,29.90,0,0,0,0.00
2013-10-21,67,54,42,52,46,40,97,78,46,30.15,30.01,0,0,0,0.00
2013-10-22,64,58,53,60,55,49,93,89,81,30.00,29.80,0,0,0,0.00
2013-10-23,68,60,49,59,50,35,97,73,39,29.99,29.68,0,0,0,0.00
2013-10-24,59,48,38,41,37,33,88,67,41,30.17,29.99,0,0,0,0.00
2013-10-25,56,48,38,40,34,29,84,60,36,30.34,30.17,0,0,0,0.00
2013-10-26,59,44,32,38,34,29,95,70,37,30.34,30.08,0,0,0,0.00
2013-10-27,67,54,44,47,42,37,89,66,40,30.11,30.03,0,0,0,0.00
2013-10-28,66,55,46,56,50,43,97,84,64,30.25,30.10,0,0,0,0.00
2013-10-29,72,59,49,59,53,47,98,83,56,30.32,30.24,0,0,0,0.00
2013-10-30,74,62,54,61,56,51,98,82,56,30.29,30.16,0,0,0,0.00
2013-10-31,75,64,55,64,58,54,97,80,53,30.19,29.94,0,0,0,0.00
2013-11-1,74,69,64,68,65,63,97,88,73,29.94,29.68,0,0,0,1.01
2013-11-2,70,62,54,63,54,46,98,78,46,29.91,29.68,0,0,0,0.00
2013-11-3,62,53,46,47,41,37,84,66,42,30.35,29.92,3,0,7,0.00
2013-11-4,56,47,40,40,35,32,81,66,42,30.53,30.35,3,0,7,0.00
2013-11-5,58,50,40,51,43,35,86,79,68,30.51,30.41,2,0,9,0.00
2013-11-6,70,58,48,58,52,46,97,82,59,30.41,30.11,1,0,4,0.00
2013-11-7,69,61,47,64,56,35,98,83,54,30.11,29.91,1,0,7,0.10
2013-11-8,57,46,37,36,32,26,85,61,31,30.31,30.08,1,0,7,0.00
2013-11-9,60,46,33,40,34,30,95,67,33,30.35,30.17,0,0,5,0.00
2013-11-10,71,55,43,44,38,30,80,55,27,30.21,30.05,1,0,6,0.00
2013-11-11,58,47,36,37,32,28,89,58,33,30.33,30.14,0,0,6,0.00
2013-11-12,61,44,36,42,35,20,91,71,42,30.39,30.04,6,1,13,0.01
2013-11-13,44,35,28,24,20,16,83,56,33,30.51,30.39,5,1,8,0.00
2013-11-14,56,39,27,28,25,22,87,60,27,30.47,30.33,2,0,8,0.00
2013-11-15,64,48,33,50,39,26,90,71,40,30.34,30.20,0,0,2,0.00
2013-11-16,69,58,51,58,54,48,96,86,67,30.25,30.18,0,0,2,0.00
2013-11-17,72,63,54,66,59,52,98,88,65,30.21,29.91,3,0,7,0.12
2013-11-18,76,67,55,68,56,32,97,71,39,29.94,29.79,2,0,8,0.05
2013-11-19,56,50,43,34,31,28,66,49,35,30.29,29.94,3,0,8,0.00
2013-11-20,53,45,39,39,34,29,82,64,51,30.42,30.29,3,0,9,0.00
2013-11-21,63,51,44,51,44,39,90,78,61,30.47,30.37,2,0,6,0.00
2013-11-22,71,60,50,61,55,47,98,84,69,30.38,30.08,2,0,8,0.02
2013-11-23,63,56,44,61,47,22,96,73,39,30.15,30.02,1,0,6,0.03
2013-11-24,44,35,27,25,12,3,67,40,24,30.53,30.15,3,0,12,0.00
2013-11-25,42,32,21,21,14,7,84,52,24,30.59,30.38,0,0,5,0.00
2013-11-26,66,48,36,66,40,16,99,77,43,30.38,29.56,2,0,10,0.58
2013-11-27,66,42,30,66,40,20,99,93,65,30.14,29.48,2,0,9,0.80
2013-11-28,43,33,25,27,21,17,81,64,39,30.49,30.15,1,0,6,0.01
2013-11-29,51,37,27,30,26,23,93,67,38,30.62,30.46,1,0,6,0.01
2013-11-30,50,38,31,35,30,24,87,72,55,30.62,30.36,0,0,5,0.00
2013-12-1,57,43,32,42,36,29,95,77,46,30.36,30.02,1,0,4,0.00
2013-12-2,59,48,40,46,41,36,95,80,47,30.02,29.81,0,0,0,0.00
2013-12-3,56,47,36,47,41,34,96,82,64,29.99,29.86,0,0,2,0.00
2013-12-4,64,57,52,58,52,46,92,86,78,30.09,29.97,0,0,0,0.00
2013-12-5,67,61,52,64,59,49,99,96,90,30.13,30.04,0,0,4,0.01
2013-12-6,77,70,64,65,64,62,96,81,63,30.08,29.98,6,1,12,0.00
2013-12-7,69,51,43,65,46,33,96,84,68,30.43,30.00,3,0,9,0.19
2013-12-8,43,37,35,34,33,30,97,88,66,30.45,30.30,1,0,5,0.13
2013-12-9,47,41,35,47,40,34,99,98,97,30.29,30.06,0,0,0,0.12
2013-12-10,49,45,32,48,43,28,99,93,66,30.32,29.89,1,0,7,0.48
2013-12-11,48,36,26,31,27,23,94,73,42,30.45,30.29,0,0,5,0.00
2013-12-12,44,36,28,30,24,15,91,65,30,30.40,30.26,1,0,5,0.00
2013-12-13,51,36,25,32,24,18,89,65,31,30.39,30.27,0,0,6,0.00
2013-12-14,48,43,39,44,37,27,97,80,52,30.30,29.78,0,0,5,0.71
2013-12-15,54,44,36,47,39,30,98,83,56,30.07,29.69,1,0,8,0.02
2013-12-16,55,42,32,37,32,27,85,69,46,30.17,30.06,1,0,6,0.00
2013-12-17,61,47,34,39,36,31,93,67,38,30.11,29.89,1,0,13,0.00
2013-12-18,49,42,31,38,25,17,79,53,27,30.29,30.02,1,0,10,0.00
2013-12-19,61,44,30,33,27,24,85,56,25,30.33,30.22,1,0,5,0.00
2013-12-20,67,53,41,55,45,32,95,75,49,30.24,30.11,1,0,6,0.00
2013-12-21,73,60,50,66,56,47,97,87,68,30.15,30.04,1,0,5,0.00
2013-12-22,78,71,64,67,65,62,96,83,64,30.10,30.02,6,1,12,0.24
2013-12-23,69,62,47,68,61,46,98,96,93,30.12,29.99,1,0,7,0.45
2013-12-24,47,42,32,45,32,16,93,68,48,30.42,30.10,1,0,6,0.13
2013-12-25,39,31,26,23,15,10,80,53,31,30.52,30.37,0,0,2,0.01
2013-12-26,48,37,28,36,30,23,89,76,57,30.37,30.22,0,0,1,0.11
2013-12-27,51,38,28,31,26,23,88,64,34,30.43,30.33,0,0,3,0.13
2013-12-28,58,41,27,40,29,23,96,67,27,30.38,30.15,0,0,2,0.04
2013-12-29,64,51,46,64,49,38,99,93,70,30.15,29.68,1,0,12,1.43
2013-12-30,55,46,38,46,41,37,98,83,59,30.12,29.92,0,0,5,0.00
2013-12-31,50,44,35,38,32,24,84,67,35,30.34,30.09,1,0,7,0.00
2014-1-1,50,41,33,37,30,24,89,68,36,30.42,30.15,1,0,4,0.00
2014-1-2,48,44,40,47,41,35,96,87,79,30.15,29.57,0,0,5,0.27